| time (UTC) | temp C | wind direction | speed KPH | gust KPH | rain 1hr cm | rain 24hr cm | rain mn cm | humidity % | barometer mb |
| 20260505010021 | 10 | 163 | 1.6 | 14.5 | 0.00 | 0.00 | 0.00 | 50 | 1013.7 |
| 20260505004516 | 10 | 304 | 0.0 | 4.8 | 0.00 | 0.00 | 0.00 | 51 | 1013.7 |
| 20260505003011 | 10 | 296 | 3.2 | 9.7 | 0.00 | 0.00 | 0.00 | 48 | 1013.7 |
| 20260505001517 | 10 | 294 | 3.2 | 9.7 | 0.00 | 0.00 | 0.00 | 48 | 1013.7 |
| 20260505000021 | 10 | 325 | 3.2 | 12.9 | 0.00 | 0.00 | 0.00 | 48 | 1013.6 |
| 20260504234524 | 10 | 312 | 4.8 | 19.3 | 0.00 | 0.00 | 0.00 | 48 | 1013.5 |
| 20260504233008 | 11 | 301 | 11.3 | 19.3 | 0.00 | 0.00 | 0.00 | 45 | 1013.3 |
| 20260504231514 | 11 | 256 | 14.5 | 22.5 | 0.00 | 0.00 | 0.00 | 48 | 1013.2 |
| 20260504230018 | 11 | 275 | 4.8 | 11.3 | 0.00 | 0.00 | 0.00 | 49 | 1013.3 |
| 20260504224524 | 11 | 229 | 4.8 | 12.9 | 0.00 | 0.00 | 0.00 | 49 | 1013.3 |
| 20260504223034 | 12 | 209 | 4.8 | 11.3 | 0.00 | 0.00 | 0.00 | 46 | 1013.3 |
| 20260504221512 | 13 | 272 | 3.2 | 19.3 | 0.00 | 0.00 | 0.00 | 42 | 1013.3 |
| 20260504220021 | 12 | 258 | 8.0 | 12.9 | 0.00 | 0.00 | 0.00 | 52 | 1013.5 |
| 20260504214520 | 11 | 284 | 3.2 | 6.4 | 0.00 | 0.00 | 0.00 | 50 | 1013.7 |
| 20260504213024 | 11 | 290 | 4.8 | 9.7 | 0.00 | 0.00 | 0.00 | 50 | 1013.7 |
| 20260504211529 | 11 | 314 | 1.6 | 4.8 | 0.00 | 0.00 | 0.00 | 48 | 1013.7 |
| 20260504210013 | 11 | 331 | 3.2 | 9.7 | 0.00 | 0.00 | 0.00 | 50 | 1013.7 |
| 20260504204541 | 11 | 348 | 3.2 | 6.4 | 0.00 | 0.00 | 0.00 | 50 | 1013.8 |
| 20260504203029 | 11 | 348 | 3.2 | 9.7 | 0.00 | 0.00 | 0.00 | 49 | 1013.7 |
| 20260504201526 | 11 | 352 | 3.2 | 11.3 | 0.00 | 0.00 | 0.00 | 47 | 1013.6 |
| 20260504200029 | 11 | 254 | 3.2 | 6.4 | 0.00 | 0.00 | 0.00 | 48 | 1013.7 |
| 20260504194516 | 11 | 221 | 3.2 | 8.0 | 0.00 | 0.00 | 0.00 | 45 | 1013.7 |
| 20260504193021 | 12 | 269 | 3.2 | 11.3 | 0.00 | 0.00 | 0.00 | 44 | 1013.8 |
| 20260504191525 | 12 | 32 | 3.2 | 12.9 | 0.00 | 0.00 | 0.00 | 44 | 1014.0 |
| 20260504190036 | 12 | 26 | 1.6 | 8.0 | 0.00 | 0.00 | 0.00 | 44 | 1014.0 |
| 20260504184535 | 12 | 245 | 3.2 | 12.9 | 0.00 | 0.00 | 0.00 | 44 | 1014.1 |
| 20260504183022 | 11 | 182 | 8.0 | 16.1 | 0.00 | 0.00 | 0.00 | 46 | 1014.2 |
| 20260504181524 | 11 | 90 | 3.2 | 11.3 | 0.00 | 0.00 | 0.00 | 49 | 1014.3 |
| 20260504180008 | 10 | 209 | 4.8 | 14.5 | 0.00 | 0.00 | 0.00 | 45 | 1014.5 |
| 20260504174513 | 11 | 126 | 4.8 | 19.3 | 0.00 | 0.00 | 0.00 | 46 | 1014.6 |
| 20260504173016 | 10 | 296 | 3.2 | 16.1 | 0.00 | 0.00 | 0.00 | 47 | 1014.6 |
| 20260504171528 | 10 | 108 | 1.6 | 14.5 | 0.00 | 0.00 | 0.00 | 46 | 1014.7 |
| 20260504081537 | 11 | 106 | 3.2 | 6.4 | 0.00 | 0.00 | 0.00 | 38 | 1011.4 |
| 20260504050022 | 12 | 123 | 6.4 | 11.3 | 0.00 | 0.00 | 0.00 | 40 | 1011.6 |
| 20260504044526 | 12 | 153 | 8.0 | 11.3 | 0.00 | 0.00 | 0.00 | 38 | 1011.5 |
| 20260504043008 | 12 | 173 | 6.4 | 9.7 | 0.00 | 0.00 | 0.00 | 39 | 1011.3 |
| 20260504041514 | 13 | 202 | 1.6 | 4.8 | 0.00 | 0.00 | 0.00 | 33 | 1011.2 |
| 20260504040022 | 13 | 85 | 0.0 | 3.2 | 0.00 | 0.00 | 0.00 | 33 | 1010.9 |
| 20260504034520 | 13 | 67 | 1.6 | 3.2 | 0.00 | 0.00 | 0.00 | 35 | 1010.6 |
| 20260504033026 | 13 | 56 | 0.0 | 3.2 | 0.00 | 0.00 | 0.00 | 34 | 1010.4 |
| 20260504031531 | 13 | 71 | 1.6 | 8.0 | 0.00 | 0.00 | 0.00 | 34 | 1010.3 |
| 20260504030025 | 13 | 13 | 0.0 | 6.4 | 0.00 | 0.00 | 0.00 | 34 | 1010.2 |
| 20260504024533 | 14 | 75 | 1.6 | 4.8 | 0.00 | 0.00 | 0.00 | 36 | 1010.1 |
| 20260504023025 | 16 | 19 | 0.0 | 4.8 | 0.00 | 0.00 | 0.00 | 36 | 1010.2 |
| 20260504021527 | 17 | 344 | 0.0 | 3.2 | 0.00 | 0.00 | 0.00 | 34 | 1010.1 |
| 20260504020014 | 18 | 59 | 1.6 | 8.0 | 0.00 | 0.00 | 0.00 | 36 | 1010.2 |
| 20260504014530 | 19 | 19 | 0.0 | 0.0 | 0.00 | 0.00 | 0.00 | 30 | 1010.2 |
| 20260504013034 | 20 | 5 | 0.0 | 3.2 | 0.00 | 0.00 | 0.00 | 30 | 1010.3 |
| 20260504011526 | 21 | 360 | 1.6 | 4.8 | 0.00 | 0.00 | 0.00 | 24 | 1010.4 |